Preview of NWS' New Version of Forecast
This preview is not operational and should not be used for support decisions.

Regional Weather Roundup (RWR)

Issued by National Weather Service (NWS)

                            
000
ASUS44 KMEG 241510
RWRTN 
TENNESSEE HOURLY STATE WEATHER ROUNDUP
NATIONAL WEATHER SERVICE MEMPHIS TN
1000 AM CDT WED APR 24 2019

TNZ002-004-019-021-049-052-054-088>092-241600-
WEST TENNESSEE
  
CITY           SKY/WX    TMP DP  RH WIND       PRES   REMARKS
MEMPHIS INTL   FAIR      72  64  76 SW7       29.98S                  
NWS MEMPHIS      N/A     71 N/A N/A MISG        N/A                   
JACKSON        FAIR      72  63  73 SW8       29.98F                  
DYERSBURG      FAIR      74  64  71 S6        29.96F                  
SOMERVILLE     SUNNY     72  63  73 S10       29.98S                  
COVINGTON      SUNNY     73  64  73 SW9       29.96F                  
UNION CITY     SUNNY     73  64  73 SW8       29.94S                  
BOLIVAR        SUNNY     73  61  64 SW9       29.98F                  
PARIS          SUNNY     72  63  73 S8        29.96F                  
HUNTINGDON     SUNNY     72  63  73 SW9       29.97S                  
LEXINGTON      SUNNY     70  61  73 S5        29.99S                  
SELMER         SUNNY     72  61  68 VRB5      29.99F                  
SAVANNAH       SUNNY     72  61  68 SW6       30.00S                  
$$

TNZ008-025-027-028-033-062-065-066-241600-
NORTH MIDDLE TENNESSEE
  
CITY           SKY/WX    TMP DP  RH WIND       PRES   REMARKS
NASHVILLE      FAIR      73  57  57 CALM      30.01F                  
DICKSON        SUNNY     70  59  68 SW9       29.99S                  
PORTLAND       SUNNY     72  57  60 W7        29.99S                  
CLARKSVILLE    FAIR      71  58  63 VRB5      29.97F                  
LEBANON        SUNNY     72  57  60 SW6       29.99F                  
MURFREESBORO   SUNNY     72  57  60 SW9       30.00F                  
COOKEVILLE     SUNNY     72  55  56 VRB7      30.03S                  
LIVINGSTON     SUNNY     70  54  56 VRB7G15   30.03R                  
GALLATIN       SUNNY     72  57  60 CALM      30.03F                  
CROSSVILLE     FAIR      68  50  52 W13       30.06R                  
ROCKWOOD       SUNNY     70  52  52 S7        30.04S                  
$$

TNZ061-075-076-078-094-096-097-241600-
SOUTH MIDDLE TENNESSEE
  
CITY           SKY/WX    TMP DP  RH WIND       PRES   REMARKS
LAWRENCEBURG   SUNNY     72  57  60 W7        30.02F                  
LEWISBURG      SUNNY     72  59  64 SW10      30.02S                  
FAYETTEVILLE   SUNNY     72  55  56 W8        30.04S                  
TULLAHOMA      SUNNY     70  55  60 W9        30.04R                  
WINCHESTER     SUNNY     70  54  56 NW7       30.04S                  
MCMINNVILLE    SUNNY     70  55  60 VRB7      30.04R                  
COLUMBIA       SUNNY     72  63  73 VRB5G13   30.00S                  
SHELBYVILLE    SUNNY     72  57  60 W6        30.03S                  
$$

TNZ017-018-042-046-047-241600-
NORTHEAST TENNESSEE
  
CITY           SKY/WX    TMP DP  RH WIND       PRES   REMARKS
TRI CITIES     FAIR      72  53  51 W6        30.03S                  
ELIZABETHTON   FAIR      72  52  49 SW13      30.03R                  
GREENEVILLE    SUNNY     70  54  56 SW8       30.03S                  
$$

TNZ012-013-036-069-073-074-241600-
CENTRAL EAST TENNESSEE
  
CITY           SKY/WX    TMP DP  RH WIND       PRES   REMARKS
KNOXVILLE      PTSUNNY   71  54  54 SW13      30.02F                  
OAK RIDGE      FAIR      73  52  47 VRB6      30.04R                  
DOWNTOWN KNOXV SUNNY     72  55  56 W9        30.03S                  
GATLINBURG     SUNNY     75  52  43 SW12      30.01F                  
MORRISTOWN     SUNNY     72  54  53 VRB6G13   30.02S                  
JACKSBORO      MOSUNNY   73  50  43 S9        30.05S                  
$$

TNZ083-085-099-241600-
SOUTHEAST TENNESSEE
  
CITY           SKY/WX    TMP DP  RH WIND       PRES   REMARKS
CHATTANOOGA    PTSUNNY   72  53  51 S3        30.03F                  
DAYTON         SUNNY     72  57  60 VRB3      30.02F                  
$$

SKY/WX REPORTED AS FAIR MEANS FEW OR NO CLOUDS BELOW
12 THOUSAND FEET.